Total_Precipitation_Accumulation
0.00 0.00 0.01 0.01 0.01 0.01 0.03 0.06 0.09 0.12 0.10 0.11 0.23 0.49 0.67 0.78 1.00 1.03 1.07 1.22 1.31 1.43 1.72 2.07 2.36 2.87 3.43 3.75 4.14 4.28 4.23 4.08 3.76 3.35 3.02 2.76 2.54 2.39 2.17 2.01 1.91 1.83 1.77 1.85
0.01 0.03 0.02 0.01 0.01 0.02 0.04 0.07 0.09 0.13 0.13 0.16 0.32 0.54 0.78 0.80 0.88 0.93 0.85 0.93 1.11 1.45 1.67 2.13 2.34 2.54 2.96 3.38 3.84 4.11 4.24 4.09 3.65 3.14 2.82 2.68 2.65 2.35 2.07 2.02 1.99 1.86 1.92 1.89
0.01 0.02 0.02 0.01 0.02 0.04 0.06 0.07 0.09 0.10 0.12 0.22 0.34 0.72 0.97 0.85 0.82 0.86 0.86 0.93 1.09 1.54 1.98 2.18 2.28 2.40 2.60 2.96 3.21 3.33 3.45 3.38 3.10 2.91 2.79 2.70 2.67 2.36 2.24 2.26 2.22 2.09 2.08 2.02
0.01 0.01 0.02 0.03 0.04 0.04 0.08 0.06 0.05 0.06 0.13 0.33 0.36 0.82 1.24 1.06 0.89 0.94 1.01 0.98 1.26 1.59 1.60 1.67 1.91 2.17 2.33 2.54 2.82 3.02 3.05 2.91 2.66 2.56 2.51 2.41 2.25 2.18 2.32 2.52 2.42 2.16 1.97 1.82
0.03 0.03 0.03 0.04 0.04 0.04 0.06 0.05 0.06 0.08 0.14 0.30 0.38 0.60 1.08 1.10 1.14 1.02 0.99 1.10 1.33 1.35 1.28 1.30 1.49 1.77 1.86 2.11 2.34 2.56 2.73 2.73 2.53 2.40 2.32 2.31 2.19 2.15 2.16 2.10 2.01 1.85 1.65 1.43
0.04 0.04 0.04 0.03 0.03 0.04 0.05 0.06 0.12 0.18 0.30 0.63 0.49 0.51 0.93 1.07 0.96 0.86 0.91 0.96 1.10 1.09 1.09 1.18 1.30 1.49 1.57 1.67 1.75 1.83 2.02 2.18 2.19 2.12 2.10 2.05 1.90 1.80 1.70 1.51 1.41 1.31 1.20 1.02
0.09 0.10 0.08 0.05 0.05 0.06 0.06 0.09 0.39 0.74 0.97 1.02 0.55 0.59 1.03 0.85 0.65 0.66 0.82 0.84 0.79 0.79 0.81 0.97 1.05 1.11 1.17 1.21 1.25 1.33 1.54 1.78 1.76 1.66 1.67 1.70 1.59 1.48 1.38 1.27 1.13 1.04 0.93 0.78
0.16 0.21 0.12 0.07 0.07 0.07 0.08 0.09 0.34 0.61 0.74 0.81 0.66 1.00 1.43 0.92 0.67 0.72 0.73 0.72 0.67 0.64 0.59 0.70 0.86 0.98 0.97 0.94 0.99 1.04 1.24 1.39 1.36 1.28 1.34 1.38 1.32 1.27 1.16 1.12 0.95 0.84 0.78 0.77
0.11 0.11 0.07 0.07 0.10 0.10 0.09 0.08 0.14 0.28 0.36 0.58 0.80 1.09 1.13 0.68 0.60 0.69 0.70 0.66 0.68 0.66 0.56 0.56 0.62 0.75 0.77 0.74 0.77 0.83 1.03 1.17 1.18 1.15 1.19 1.21 1.15 1.08 0.98 0.87 0.78 0.69 0.70 0.71
0.04 0.06 0.08 0.07 0.08 0.10 0.10 0.11 0.16 0.22 0.34 0.55 0.75 1.03 1.16 0.78 0.62 0.47 0.42 0.45 0.39 0.38 0.36 0.33 0.35 0.40 0.49 0.59 0.68 0.77 0.84 0.90 0.93 0.93 0.96 0.99 0.98 0.91 0.83 0.73 0.63 0.59 0.58 0.62
0.04 0.04 0.07 0.08 0.11 0.13 0.13 0.11 0.13 0.17 0.20 0.37 0.72 0.91 0.68 0.54 0.48 0.44 0.39 0.42 0.35 0.27 0.25 0.27 0.29 0.35 0.42 0.48 0.59 0.70 0.74 0.79 0.83 0.81 0.82 0.85 0.84 0.85 0.78 0.66 0.56 0.53 0.55 0.57
0.04 0.04 0.06 0.13 0.18 0.15 0.14 0.11 0.13 0.17 0.16 0.22 0.37 0.53 0.37 0.36 0.40 0.38 0.38 0.41 0.39 0.37 0.33 0.30 0.30 0.37 0.44 0.51 0.55 0.58 0.61 0.66 0.77 0.89 1.01 1.05 0.97 0.89 0.79 0.66 0.57 0.53 0.53 0.54
0.05 0.05 0.10 0.28 0.39 0.26 0.16 0.12 0.12 0.14 0.11 0.17 0.31 0.49 0.32 0.24 0.31 0.43 0.60 0.73 0.57 0.43 0.38 0.32 0.31 0.34 0.38 0.47 0.53 0.51 0.53 0.58 0.69 0.89 1.17 1.28 1.18 1.04 0.87 0.67 0.52 0.46 0.46 0.48
0.07 0.06 0.09 0.29 0.42 0.36 0.26 0.17 0.13 0.11 0.13 0.16 0.20 0.40 0.37 0.28 0.28 0.35 0.44 0.42 0.52 0.49 0.39 0.38 0.33 0.39 0.42 0.44 0.51 0.54 0.56 0.57 0.65 0.79 0.97 1.06 0.95 0.84 0.74 0.57 0.43 0.36 0.37 0.41
0.11 0.07 0.06 0.10 0.20 0.23 0.23 0.22 0.18 0.14 0.12 0.21 0.22 0.29 0.34 0.29 0.33 0.39 0.52 0.54 0.56 0.44 0.31 0.30 0.28 0.34 0.41 0.41 0.47 0.46 0.42 0.37 0.44 0.57 0.63 0.71 0.65 0.54 0.50 0.46 0.41 0.39 0.39 0.40
0.17 0.17 0.13 0.12 0.16 0.21 0.26 0.24 0.18 0.13 0.11 0.14 0.19 0.25 0.27 0.28 0.37 0.39 0.40 0.37 0.37 0.32 0.23 0.21 0.26 0.30 0.29 0.28 0.29 0.25 0.25 0.29 0.35 0.42 0.49 0.58 0.65 0.56 0.46 0.42 0.40 0.38 0.40 0.45
0.22 0.25 0.23 0.19 0.19 0.21 0.30 0.30 0.22 0.14 0.13 0.18 0.24 0.29 0.27 0.24 0.28 0.32 0.33 0.33 0.35 0.33 0.21 0.17 0.22 0.26 0.21 0.20 0.20 0.21 0.24 0.32 0.40 0.49 0.57 0.65 0.69 0.66 0.58 0.48 0.48 0.47 0.50 0.54
0.37 0.37 0.30 0.25 0.32 0.42 0.30 0.25 0.25 0.25 0.23 0.24 0.31 0.28 0.30 0.32 0.37 0.39 0.41 0.37 0.31 0.27 0.21 0.16 0.17 0.19 0.21 0.20 0.22 0.26 0.32 0.42 0.49 0.57 0.67 0.75 0.79 0.75 0.72 0.70 0.71 0.70 0.70 0.70
0.30 0.45 0.42 0.39 0.45 0.41 0.36 0.25 0.28 0.34 0.46 0.44 0.49 0.45 0.40 0.41 0.41 0.40 0.36 0.32 0.31 0.24 0.22 0.20 0.18 0.20 0.23 0.24 0.27 0.37 0.47 0.55 0.65 0.72 0.79 0.85 0.93 0.94 0.95 0.97 0.95 0.96 0.94 0.84
0.30 0.43 0.54 0.49 0.58 0.56 0.49 0.35 0.33 0.44 0.80 0.64 0.57 0.55 0.48 0.48 0.50 0.48 0.43 0.39 0.35 0.28 0.25 0.24 0.22 0.25 0.30 0.36 0.41 0.53 0.62 0.69 0.78 0.86 1.00 1.12 1.23 1.24 1.23 1.27 1.25 1.19 1.14 1.04
0.53 0.61 0.64 0.62 0.63 0.64 0.53 0.46 0.45 0.78 1.05 0.74 0.58 0.55 0.58 0.65 0.61 0.55 0.45 0.44 0.39 0.31 0.30 0.27 0.26 0.32 0.41 0.49 0.60 0.74 0.87 0.97 0.93 0.98 1.13 1.31 1.41 1.47 1.49 1.54 1.54 1.47 1.42 1.39
0.67 0.75 0.74 0.73 0.83 0.89 0.65 0.61 0.85 0.99 0.83 0.82 0.76 0.70 0.67 0.64 0.55 0.46 0.42 0.41 0.38 0.34 0.36 0.35 0.35 0.42 0.51 0.63 0.73 0.85 0.92 0.93 0.96 1.03 1.16 1.28 1.38 1.40 1.47 1.62 1.65 1.65 1.63 1.56
0.66 0.77 0.82 0.87 0.94 0.83 0.68 0.74 0.83 0.87 0.89 0.85 0.80 0.73 0.64 0.62 0.54 0.43 0.35 0.34 0.35 0.33 0.35 0.36 0.40 0.53 0.65 0.79 0.88 0.96 0.93 1.00 1.02 1.08 1.22 1.36 1.43 1.47 1.53 1.56 1.55 1.58 1.61 1.58
0.70 0.66 0.79 0.95 0.98 0.91 0.80 0.68 0.62 0.66 0.70 0.70 0.67 0.68 0.67 0.65 0.58 0.48 0.37 0.31 0.31 0.31 0.29 0.31 0.36 0.47 0.58 0.69 0.78 0.90 0.99 1.07 1.12 1.18 1.25 1.36 1.47 1.49 1.49 1.58 1.65 1.69 1.76 1.81
0.79 0.72 0.85 1.04 0.97 0.81 0.88 0.87 0.77 0.77 0.81 0.78 0.68 0.66 0.67 0.63 0.58 0.47 0.41 0.36 0.32 0.30 0.29 0.31 0.37 0.44 0.51 0.58 0.66 0.74 0.83 0.97 1.07 1.14 1.18 1.24 1.31 1.40 1.48 1.54 1.60 1.57 1.61 1.58
0.76 0.79 0.95 1.10 1.01 0.95 0.96 0.88 0.78 0.80 0.77 0.80 0.82 0.81 0.64 0.53 0.55 0.51 0.44 0.38 0.36 0.35 0.35 0.38 0.40 0.42 0.47 0.54 0.66 0.74 0.83 0.98 1.13 1.23 1.25 1.19 1.16 1.23 1.29 1.36 1.35 1.28 1.21 1.18